Estherville, IA

1:18 AM CDT on April 21, 2018 (GMT -0500)
Estherville Municipal

Weather History for KEST - November, 2014

Change the Weather History Date:

Monday, November 17, 2014

  Actual Average Record
Temperature  
Mean Temperature 7 °F 32 °F  
Max Temperature 11 °F 41 °F 70 °F (1953)
Min Temperature 3 °F 23 °F -7 °F (1959)
Degree Days  
Heating Degree Days 58 33  
Month to date heating degree days 567 488  
Since 1 July heating degree days 1286 1237  
Cooling Degree Days 0 0  
Month to date cooling degree days 0 0  
Year to date cooling degree days 435 593  
Moisture  
Dew Point 3 °F    
Average Humidity 80    
Maximum Humidity 86    
Minimum Humidity 73    
Precipitation  
Precipitation T in 0.06 in 0.90 in (2015)
Month to date precipitation 0.18 0.96  
Sea Level Pressure  
Sea Level Pressure 30.09 in    
Wind  
Wind Speed 21 mph (WNW)    
Max Wind Speed 29 mph    
Max Gust Speed 35 mph    
Visibility 5 miles    
Events Fog , Snow    
T = Trace of Precipitation, MM = Missing Value Source: NWS Daily Summary

Daily Weather History Graph

Daily Weather History Graph

Search for Another Location

Airport or City:

Astronomy

Nov. 17, 2014 Rise Set
Actual Time 7:15 AM CST 4:52 PM CST
Civil Twilight 6:44 AM CST 5:23 PM CST
Nautical Twilight 6:09 AM CST 5:58 PM CST
Astronomical Twilight 5:35 AM CST 6:32 PM CST
Moon 2:09 AM CST (11/17) 2:24 PM CST (11/17)
Length of Visible Light 10h 39m
Length of Day
9h 37m
Waning Crescent, 22% of the Moon is Illuminated
Nov 17
Waning Crescent
Nov 22
New
Nov 29
First Quarter
Dec 6
Full
Dec 14
Last Quarter

Hourly Weather History & Observations

Time (CST) Temp. Windchill Dew Point Humidity Pressure Visibility Wind Dir Wind Speed Gust Speed Precip Events Conditions
12:52 AM 8.1 °F -10.2 °F 3.0 °F 80% 30.06 in 10.0 mi WNW 17.3 mph - N/A   Clear
1:52 AM 8.1 °F -10.2 °F 3.0 °F 80% 30.06 in 10.0 mi WNW 17.3 mph - N/A   Mostly Cloudy
2:52 AM 7.0 °F -13.1 °F 1.9 °F 80% 30.09 in 10.0 mi NW 20.7 mph - N/A   Mostly Cloudy
3:52 AM 5.0 °F -14.7 °F -0.0 °F 80% 30.09 in 10.0 mi NW 18.4 mph - N/A   Clear
4:52 AM 3.0 °F -17.8 °F -2.0 °F 80% 30.09 in 10.0 mi WNW 19.6 mph - N/A   Clear
5:52 AM 3.9 °F -16.6 °F -0.9 °F 80% 30.09 in 10.0 mi WNW 19.6 mph - N/A   Clear
6:52 AM 3.0 °F -17.3 °F -2.0 °F 80% 30.10 in 10.0 mi WNW 18.4 mph - N/A   Clear
7:52 AM 3.9 °F -18.1 °F -2.0 °F 76% 30.10 in 7.0 mi WNW 23.0 mph - N/A   Clear
8:52 AM 5.0 °F -17.1 °F -0.9 °F 76% 30.11 in 5.0 mi WNW 24.2 mph - N/A   Haze
9:16 AM 5.0 °F -17.9 °F -0.9 °F 76% 30.03 in 2.5 mi WNW 26.5 mph 34.5 mph N/A   Haze
9:24 AM 5.0 °F -16.7 °F -0.9 °F 76% 30.02 in 5.0 mi WNW 23.0 mph - N/A   Haze
9:52 AM 5.0 °F -16.7 °F -0.0 °F 80% 30.11 in 5.0 mi WNW 23.0 mph - N/A   Haze
10:52 AM 7.0 °F -14.0 °F 1.0 °F 77% 30.12 in 6.0 mi WNW 23.0 mph - N/A   Haze
11:12 AM 8.1 °F -12.6 °F 1.9 °F 76% 30.03 in 7.0 mi WNW 23.0 mph 28.8 mph N/A   Mostly Cloudy
11:52 AM 9.0 °F -11.0 °F 1.9 °F 73% 30.11 in 3.0 mi WNW 21.9 mph 32.2 mph N/A   Haze
12:12 PM 9.0 °F -12.2 °F 3.0 °F 77% 30.02 in 2.5 mi WNW 25.3 mph - N/A   Haze
12:25 PM 9.0 °F -12.2 °F 3.0 °F 77% 30.02 in 3.0 mi WNW 25.3 mph 28.8 mph N/A   Haze
12:36 PM 10.0 °F -10.4 °F 3.9 °F 76% 30.01 in 1.8 mi WNW 24.2 mph - N/A   Haze
12:43 PM 10.0 °F -10.4 °F 3.9 °F 76% 30.01 in 0.8 mi WNW 24.2 mph - 0.00 in Snow Light Snow
12:52 PM 10.0 °F -10.0 °F 5.0 °F 80% 30.10 in 0.8 mi WNW 23.0 mph - 0.00 in Snow Light Snow
1:03 PM 10.0 °F -10.8 °F 5.0 °F 80% 30.02 in 0.5 mi NW 25.3 mph 32.2 mph 0.00 in Snow Snow
1:32 PM 10.9 °F -10.3 °F 6.1 °F 81% 30.02 in 0.5 mi WNW 27.6 mph - 0.00 in Snow Snow
1:52 PM 10.9 °F -8.8 °F 6.1 °F 81% 30.11 in 0.8 mi NW 23.0 mph 34.5 mph 0.00 in Snow Light Snow
2:18 PM 10.9 °F -10.3 °F 5.0 °F 77% 30.03 in 0.5 mi NW 27.6 mph 35.7 mph 0.00 in Snow Snow
2:26 PM 10.9 °F -9.6 °F 5.0 °F 77% 30.03 in 1.2 mi NW 25.3 mph 33.4 mph 0.00 in   Overcast
2:35 PM 10.9 °F -9.2 °F 6.1 °F 81% 30.04 in 0.8 mi NW 24.2 mph - 0.00 in Snow Light Snow
2:43 PM 10.9 °F -8.3 °F 7.0 °F 84% 30.03 in 0.5 mi NW 21.9 mph - 0.00 in Fog , Snow Light Snow
2:52 PM 10.9 °F -9.6 °F 6.1 °F 81% 30.13 in 0.8 mi WNW 25.3 mph - 0.00 in Snow Light Snow
3:34 PM 10.0 °F -10.8 °F 6.1 °F 84% 30.05 in 1.0 mi WNW 25.3 mph 29.9 mph 0.00 in Snow Light Snow
3:52 PM 10.9 °F -8.3 °F 6.1 °F 81% 30.15 in 1.0 mi WNW 21.9 mph 31.1 mph 0.00 in Snow Light Snow
3:59 PM 10.0 °F -9.1 °F 6.1 °F 84% 30.06 in 2.0 mi NW 20.7 mph 29.9 mph 0.00 in   Overcast
4:11 PM 10.0 °F -10.8 °F 5.0 °F 80% 30.06 in 1.2 mi WNW 25.3 mph 33.4 mph 0.00 in Snow Light Snow
4:20 PM 10.0 °F -10.0 °F 5.0 °F 80% 30.07 in 2.5 mi WNW 23.0 mph 29.9 mph 0.00 in   Haze
4:27 PM 10.0 °F -9.5 °F 3.9 °F 76% 30.07 in 3.0 mi WNW 21.9 mph 29.9 mph 0.00 in   Haze
4:52 PM 9.0 °F -11.4 °F 5.0 °F 84% 30.17 in 4.0 mi WNW 23.0 mph - 0.00 in   Overcast
5:37 PM 8.1 °F -12.2 °F 3.0 °F 80% 30.08 in 8.0 mi WNW 21.9 mph - N/A   Scattered Clouds
5:52 PM 8.1 °F -12.2 °F 3.0 °F 80% 30.19 in 7.0 mi WNW 21.9 mph - N/A   Clear
6:52 PM 7.0 °F -13.1 °F 1.9 °F 80% 30.19 in 9.0 mi WNW 20.7 mph - N/A   Clear
7:52 PM 7.0 °F -12.1 °F 1.0 °F 77% 30.19 in 10.0 mi WNW 18.4 mph - N/A   Clear
8:52 PM 6.1 °F -13.3 °F 1.0 °F 80% 30.18 in 10.0 mi WNW 18.4 mph - N/A   Clear
9:52 PM 8.1 °F -10.2 °F 1.9 °F 76% 30.18 in 6.0 mi WNW 17.3 mph - N/A   Haze
10:52 PM 3.9 °F -13.7 °F -0.9 °F 80% 30.18 in 10.0 mi WNW 13.8 mph - N/A   Clear
11:52 PM 7.0 °F -12.1 °F 1.9 °F 80% 30.17 in 10.0 mi WNW 18.4 mph - N/A   Overcast